K5NOC-12 Weather Reports


Display with metric or nautical units.
time (UTC)temp
F
wind
direction
speed
MPH
gust
MPH
rain 1hr
in
rain 24hr
in
rain mn
in
humidity
%
barometer
mb
20260510115629 60 349 1.0 3.0 0.00 0.00 0.00 81 1016.6
20260510114129 60 355 0.0 0.0 0.00 0.00 0.00 79 1016.4
20260510112629 61 9 1.0 2.0 0.00 0.00 0.00 78 1016.3
20260510111129 61 42 0.0 0.0 0.00 0.00 0.00 76 1015.9
20260510105628 62 69 0.0 0.0 0.00 0.00 0.00 76 1015.7
20260510104128 62 47 1.0 2.0 0.00 0.00 0.00 77 1015.4
20260510102628 62 30 1.0 1.0 0.00 0.00 0.00 78 1015.5
20260510101128 62 86 1.0 2.0 0.00 0.00 0.00 78 1015.0
20260510095628 62 53 0.0 0.0 0.00 0.00 0.00 78 1014.8
20260510094128 62 65 1.0 1.0 0.00 0.00 0.00 78 1014.9
20260510092627 62 108 0.0 1.0 0.00 0.00 0.00 77 1014.6
20260510091127 62 113 1.0 1.0 0.00 0.00 0.00 77 1014.0
20260510085627 62 96 2.0 3.0 0.00 0.00 0.00 76 1014.0
20260510084127 62 105 0.0 3.0 0.00 0.00 0.00 74 1013.9
20260510082627 63 113 0.0 2.0 0.00 0.00 0.00 73 1013.9
20260510081127 63 47 2.0 2.0 0.00 0.00 0.00 72 1013.7
20260510075627 64 72 0.0 0.0 0.00 0.00 0.00 70 1013.5
20260510074126 66 71 2.0 3.0 0.00 0.00 0.00 69 1013.0
20260510072626 67 17 0.0 0.0 0.00 0.00 0.00 69 1012.7
20260510071126 68 17 0.0 0.0 0.00 0.00 0.00 68 1012.8
20260510065626 68 26 1.0 2.0 0.00 0.00 0.00 68 1013.1
20260510064126 68 3 7.0 10.0 0.00 0.00 0.00 68 1013.2
20260510062626 69 22 2.0 3.0 0.00 0.00 0.00 66 1012.8
20260510061125 69 42 0.0 0.0 0.00 0.00 0.00 65 1013.0
20260510055625 70 49 0.0 1.0 0.00 0.00 0.00 64 1013.0
20260510054125 71 13 1.0 2.0 0.00 0.00 0.00 63 1012.8
20260510052625 71 66 0.0 0.0 0.00 0.00 0.00 61 1012.9
20260510051125 71 66 0.0 0.0 0.00 0.00 0.00 60 1012.6
20260510045624 72 95 0.0 1.0 0.00 0.00 0.00 58 1012.3
20260510044124 72 96 0.0 0.0 0.00 0.00 0.00 55 1012.2
20260510042624 73 96 0.0 0.0 0.00 0.00 0.00 51 1012.1
20260510041124 73 96 0.0 0.0 0.00 0.00 0.00 48 1011.8
20260510035624 74 96 0.0 0.0 0.00 0.00 0.00 43 1011.8
20260510034123 75 127 8.0 10.0 0.00 0.00 0.00 42 1011.7
20260510032623 78 274 0.0 0.0 0.00 0.00 0.00 21 1011.3
20260510031123 77 274 0.0 0.0 0.00 0.00 0.00 19 1010.8
20260510025623 77 116 0.0 0.0 0.00 0.00 0.00 19 1010.2
20260510024123 78 122 0.0 0.0 0.00 0.00 0.00 18 1009.7
20260510022623 80 122 0.0 0.0 0.00 0.00 0.00 16 1009.0
20260510021122 81 122 0.0 0.0 0.00 0.00 0.00 16 1008.9
20260510004321 91 336 2.0 5.0 0.00 0.00 0.00 11 1008.0
20260510002821 91 316 2.0 3.0 0.00 0.00 0.00 12 1008.1
20260510001321 91 295 5.0 6.0 0.00 0.00 0.00 11 1008.2
20260509235821 91 203 1.0 3.0 0.00 0.00 0.00 12 1008.2
20260509234321 91 348 1.0 1.0 0.00 0.00 0.00 10 1008.4
20260509232821 91 355 5.0 5.0 0.00 0.00 0.00 11 1008.5
20260509231321 91 265 12.0 13.0 0.00 0.00 0.00 11 1008.5
20260509225820 91 273 7.0 8.0 0.00 0.00 0.00 11 1008.6
20260509224320 92 292 5.0 9.0 0.00 0.00 0.00 11 1008.7
20260509222820 92 253 6.0 12.0 0.00 0.00 0.00 11 1008.6
20260509221320 92 231 6.0 6.0 0.00 0.00 0.00 11 1008.6
20260509215820 92 292 6.0 8.0 0.00 0.00 0.00 13 1008.7
20260509214320 92 256 12.0 13.0 0.00 0.00 0.00 12 1008.9
20260509212820 92 263 7.0 12.0 0.00 0.00 0.00 13 1009.1
20260509211320 92 266 7.0 15.0 0.00 0.00 0.00 14 1009.3
20260509205819 91 261 7.0 8.0 0.00 0.00 0.00 14 1009.6
20260509204319 91 257 9.0 12.0 0.00 0.00 0.00 17 1009.7
20260509202819 91 226 2.0 6.0 0.00 0.00 0.00 19 1009.9
20260509201319 90 235 3.0 5.0 0.00 0.00 0.00 18 1010.1
20260509195819 89 252 3.0 3.0 0.00 0.00 0.00 19 1010.2
20260509194319 89 327 2.0 6.0 0.00 0.00 0.00 20 1010.4
20260509192819 87 244 7.0 8.0 0.00 0.00 0.00 20 1010.8
20260509191318 87 216 5.0 5.0 0.00 0.00 0.00 22 1010.9
20260509185818 87 262 10.0 12.0 0.00 0.00 0.00 21 1011.4
20260509184318 87 242 8.0 12.0 0.00 0.00 0.00 21 1011.5
20260509182818 86 216 7.0 12.0 0.00 0.00 0.00 23 1011.9
20260509181318 85 162 8.0 10.0 0.00 0.00 0.00 25 1012.1
20260509175818 84 178 10.0 12.0 0.00 0.00 0.00 26 1012.4
20260509174318 82 184 5.0 14.0 0.00 0.00 0.00 28 1012.6
20260509172818 82 193 14.0 16.0 0.00 0.00 0.00 30 1012.8
20260509171318 81 163 9.0 12.0 0.00 0.00 0.00 31 1013.1
20260509165817 80 154 6.0 8.0 0.00 0.00 0.00 32 1013.3
20260509164317 79 162 10.0 12.0 0.00 0.00 0.00 32 1013.4
20260509162817 78 184 9.0 10.0 0.00 0.00 0.00 35 1013.6
20260509161317 77 175 6.0 7.0 0.00 0.00 0.00 36 1013.6
20260509155817 76 178 15.0 15.0 0.00 0.00 0.00 36 1013.7
20260509154317 75 137 6.0 6.0 0.00 0.00 0.00 39 1013.8
20260509152817 74 130 7.0 6.0 0.00 0.00 0.00 42 1013.9
20260509151317 72 129 7.0 9.0 0.00 0.00 0.00 46 1014.1
20260509145817 70 116 1.0 3.0 0.00 0.00 0.00 49 1014.2
20260509144316 68 127 2.0 3.0 0.00 0.00 0.00 54 1014.2
20260509142816 66 112 0.0 0.0 0.00 0.00 0.00 59 1014.3
20260509141316 65 120 3.0 3.0 0.00 0.00 0.00 64 1014.4
20260509135816 63 113 0.0 0.0 0.00 0.00 0.00 60 1014.4
20260509134316 60 312 0.0 0.0 0.00 0.00 0.00 61 1014.4
20260509132904 57 311 0.0 0.0 0.00 0.00 0.00 61 1014.4
20260509132816 57 311 0.0 0.0 0.00 0.00 0.00 61 1014.4
20260509131315 55 311 0.0 0.0 0.00 0.00 0.00 62 1014.4
20260509125815 55 311 0.0 0.0 0.00 0.00 0.00 62 1014.3
20260509124315 54 311 0.0 0.0 0.00 0.00 0.00 63 1014.2
20260509122815 52 311 0.0 0.0 0.00 0.00 0.00 65 1014.1
20260509121315 53 89 0.0 1.0 0.00 0.00 0.00 63 1014.1